User: anonymous
Location: NC_16_and_73
(35.4490°N, 81.0150°W)
Time: 13:54:52
(UTC-04:00)
Language:

Iridium 63 - Orbit

View from above orbital plane
View from above orbital plane
View from above satellite
View from above satellite

Ground track
Ground track

The orbit data is extracted from the following two-line orbital elements,

1 25286U 98021B   14204.44519985  .00000212  00000-0  68691-4 0  8986
2 25286 086.4028 307.1342 0002228 106.8132 299.4373 14.34215403853121
Epoch (UTC): 23 July 2014 10:41:05
Eccentricity: 0.0002228
inclination: 86.4028°
perigee height: 776 km
apogee height: 779 km
right ascension of ascending node: 307.1342°
argument of perigee: 106.8132°
revolutions per day: 14.34215403
mean anomaly at epoch: 299.4373°
orbit number at epoch: 85312

The dashed part of the orbit path shows where the satellite is in the earth's shadow,  

DLR